GFSNW_925_temp_111.txt.gz
Temp
3 3 3 2 2 2 3 2 -3 4 5 2 4 2 5 7 7 8 7 8 7 7 7 8 9 11 11 12 12 12 13 11 11 13 13 15 13 12 11 12 12 12 11 12
2 2 2 2 2 2 2 -2 1 4 4 -3 -2 4 5 5 6 7 7 7 8 8 7 6 9 11 11 12 12 12 12 11 10 12 12 12 12 13 13 12 11 12 12 12
2 2 2 2 2 2 3 -1 -3 -1 2 2 2 1 3 5 7 7 7 7 8 7 7 7 7 10 11 11 11 12 12 10 11 10 11 11 11 12 12 12 9 11 11 12
2 2 2 2 2 2 2 -0 -1 1 -2 1 3 3 4 4 4 6 7 7 7 6 6 6 8 9 9 11 10 10 10 10 11 10 11 11 11 10 11 11 11 10 12 12
2 2 2 2 2 2 2 -0 0 1 2 2 2 3 3 5 6 5 6 6 7 6 6 8 8 8 8 9 9 9 9 9 10 9 10 10 9 10 10 10 11 11 12 12
2 2 2 2 2 2 2 1 1 1 1 1 2 2 4 5 5 6 7 6 5 6 7 8 8 8 8 8 8 7 8 8 8 9 10 9 9 10 10 11 12 11 11 13
2 2 2 2 2 2 2 2 2 1 1 2 3 3 5 4 5 5 8 7 6 8 8 8 8 7 7 6 6 7 7 7 7 7 9 7 11 11 12 11 12 13 13 13
1 2 2 2 3 2 2 2 1 0 -2 3 4 3 4 5 5 5 6 6 7 4 6 4 6 6 7 8 7 6 7 7 4 4 7 9 10 12 11 11 10 11 13 12
1 2 2 3 3 2 2 2 2 1 1 1 4 3 4 4 4 4 5 5 5 5 2 3 5 5 7 5 7 8 7 7 7 4 6 6 10 12 13 11 9 10 11 11
1 2 2 3 3 2 2 2 2 1 2 2 3 2 3 4 3 2 3 4 4 4 -0 3 4 5 8 7 6 3 7 7 6 6 3 7 10 12 12 9 9 10 11 11
2 2 2 2 2 2 1 2 2 1 2 2 3 4 3 2 2 3 3 2 3 3 5 3 4 5 7 7 9 7 7 7 7 6 5 6 11 11 11 10 10 11 11 12
1 2 2 2 1 1 1 1 2 2 1 1 2 2 3 3 3 3 3 3 4 3 3 4 4 5 6 6 7 6 7 7 7 7 7 9 8 9 10 9 9 11 12 12
1 1 2 2 2 1 1 1 1 1 1 0 1 2 5 4 4 4 3 2 4 4 4 4 4 3 5 5 6 6 6 6 7 8 8 7 8 9 9 10 10 10 10 8
1 2 2 2 1 2 2 1 2 1 0 1 1 4 4 6 6 4 4 5 5 4 3 3 3 4 5 6 7 6 6 6 6 8 6 7 8 9 9 10 10 9 6 5
1 1 1 1 2 2 2 2 2 2 2 0 1 2 5 6 5 4 4 4 3 2 4 4 4 4 5 4 5 6 7 9 6 6 8 6 7 9 9 8 6 7 6 3
1 1 1 1 2 1 1 1 2 1 1 2 1 2 3 6 6 4 3 3 3 2 3 3 4 4 5 6 6 8 8 8 9 9 9 9 9 7 6 5 4 3 2 2
1 1 1 1 1 1 1 2 3 2 1 1 2 1 3 6 5 4 3 4 3 3 3 4 3 4 6 5 4 5 5 6 7 8 9 9 8 7 6 4 2 1 0 -0
1 1 1 1 1 1 2 3 3 1 2 2 1 1 3 5 4 5 4 4 4 4 4 4 5 5 5 6 5 4 3 4 5 5 6 6 7 7 6 5 3 1 -1 -2
1 1 1 1 1 0 2 3 2 3 3 1 2 2 3 5 6 5 5 5 5 4 4 5 5 5 6 4 4 2 2 2 2 3 3 3 3 3 5 5 3 1 -2 -2
2 1 0 1 1 2 3 2 1 1 1 2 2 2 1 4 4 5 4 3 4 5 5 5 5 5 3 3 2 1 0 1 1 1 1 1 1 1 2 1 -0 -1 -2 -2
0 0 1 1 3 2 2 1 1 2 2 2 3 3 2 3 4 4 4 3 3 4 5 5 5 5 2 1 1 0 -1 -1 -0 -0 -0 -0 -1 -0 -0 -1 -1 -2 -2 -3
2 2 2 2 3 2 2 1 1 2 3 2 3 4 3 1 2 2 3 4 2 3 4 5 5 1 0 -0 -0 -0 -2 -2 -2 -3 -2 -3 -3 -3 -2 -2 -2 -4 -5 -6
3 3 2 3 2 3 1 2 3 3 1 0 2 3 1 3 3 2 4 4 2 2 3 5 2 -0 -1 -1 -1 -2 -2 -4 -5 -5 -5 -5 -4 -5 -5 -4 -5 -6 -6 -7
3 3 3 3 2 2 2 3 3 1 1 1 0 3 2 1 2 2 2 2 3 4 3 2 -1 -2 -2 -2 -3 -3 -4 -5 -8 -7 -7 -8 -7 -8 -8 -7 -7 -7 -8 -8
2 2 2 2 -1 0 2 2 3 1 1 0 2 2 2 3 2 4 2 4 5 2 -1 -4 -2 -3 -3 -3 -3 -5 -6 -8 -9 -10 -11 -11 -10 -10 -10 -9 -9 -9 -9 -10
-0 -2 1 1 2 1 1 1 2 0 1 2 3 1 -1 3 0 4 4 3 1 -5 -5 -5 -5 -5 -5 -6 -6 -7 -8 -9 -10 -10 -10 -10 -10 -11 -11 -10 -10 -10 -10 -11
-2 -4 -2 -1 -1 -1 -1 -1 -1 -1 2 3 2 4 1 0 3 0 -2 -6 -6 -4 -6 -7 -7 -6 -6 -10 -8 -8 -8 -9 -9 -10 -10 -10 -10 -10 -11 -12 -12 -12 -12 -12

GFSNW_925_temp_114.txt.gz
Temp
2 3 3 2 2 3 3 2 -3 4 5 3 3 2 4 6 6 6 6 6 6 6 6 6 6 7 10 12 11 11 11 10 11 12 12 12 12 11 11 11 11 11 11 11
2 2 2 2 2 2 3 -2 -1 3 4 -3 -3 1 4 5 5 5 6 6 7 7 6 6 6 7 10 10 11 11 11 11 10 11 12 12 12 12 12 10 10 10 9 12
2 2 2 2 2 2 3 -3 -3 -1 1 1 2 2 3 4 6 5 6 6 6 6 6 6 6 7 9 10 10 11 11 10 10 10 11 11 11 11 11 10 7 10 10 11
2 2 2 2 2 2 2 -1 -2 0 -1 -0 2 2 3 3 3 5 5 5 6 6 5 6 6 7 8 9 10 10 10 9 10 10 10 10 10 10 10 10 10 9 11 10
2 2 2 2 2 2 2 -0 -2 1 1 2 2 2 2 4 4 4 4 5 6 6 5 6 6 8 6 8 9 9 9 9 9 9 10 9 9 9 9 9 10 9 10 10
2 2 2 2 2 2 1 0 1 0 0 1 1 1 2 4 4 5 4 4 4 5 6 5 6 6 6 7 8 7 7 8 8 8 9 9 8 9 9 9 10 10 9 11
2 2 2 2 2 2 2 2 1 0 -1 1 2 3 3 3 4 4 6 6 5 7 5 6 6 6 6 6 6 6 7 7 6 7 8 6 9 10 10 9 10 10 11 12
2 2 2 2 2 2 2 2 1 -0 -1 0 2 3 3 3 4 5 5 6 6 4 4 4 6 6 7 8 5 5 6 7 4 4 6 8 9 10 11 10 10 10 10 11
2 1 2 2 2 2 2 2 2 1 -1 -0 3 3 3 3 3 4 5 5 4 4 3 2 5 5 7 4 6 7 5 6 6 5 5 5 9 10 11 9 8 8 7 9
1 1 2 2 2 2 2 1 1 1 0 1 2 2 3 3 3 1 3 3 3 3 0 3 4 5 7 6 5 3 7 6 6 7 6 7 9 10 11 8 9 7 8 10
1 1 2 2 2 2 1 1 1 1 -1 -0 2 3 2 2 2 1 2 1 2 1 3 3 4 5 6 6 8 6 6 6 6 6 6 5 8 8 8 9 9 9 9 10
1 2 2 2 2 2 1 1 2 1 1 -0 2 2 3 3 3 2 2 3 3 1 -0 1 3 4 5 5 6 6 6 6 6 7 7 7 6 8 8 9 8 9 9 10
2 1 2 2 2 2 1 1 1 1 1 1 0 1 5 4 3 3 2 2 4 3 3 4 4 3 4 5 6 6 6 5 6 6 7 6 6 8 9 7 7 9 7 7
1 1 1 1 2 1 1 1 1 1 1 1 1 3 3 6 5 3 3 3 3 3 4 4 3 3 5 5 6 6 6 6 6 7 6 7 9 8 7 7 8 4 4 3
1 1 2 2 2 1 1 1 1 2 1 -0 0 2 5 4 4 3 3 2 2 1 2 2 4 3 4 4 4 6 6 6 6 6 6 6 7 7 6 5 5 5 4 2
2 1 1 1 1 2 1 1 1 2 2 2 1 2 1 5 5 3 2 2 1 2 2 3 3 4 5 5 6 5 5 5 4 5 6 7 5 6 5 3 3 2 2 2
2 1 1 1 1 1 1 1 2 1 1 1 1 0 2 4 3 2 1 3 2 2 3 3 3 3 4 4 4 5 4 4 3 3 5 5 5 5 5 3 1 0 -0 -1
1 1 1 1 1 1 1 2 2 1 1 1 1 1 1 4 3 4 3 3 3 3 3 4 4 4 4 5 4 3 2 3 3 2 3 3 3 3 4 5 3 0 -1 -2
1 1 1 0 1 0 1 2 1 2 2 1 1 1 1 4 5 5 4 4 4 4 4 4 4 4 5 4 3 2 1 1 1 1 2 1 1 1 2 1 0 -1 -1 -2
1 1 -0 0 0 2 2 1 1 1 1 2 2 1 1 3 3 4 4 3 5 5 5 5 5 4 2 2 1 -0 -0 -0 -0 -0 -0 -0 -1 -0 0 0 -1 -1 -2 -2
1 -0 1 2 2 2 1 1 2 2 2 1 2 2 3 3 2 4 3 4 4 5 5 5 5 4 1 0 -0 -1 -2 -2 -2 -2 -2 -2 -2 -2 -2 -1 -1 -2 -3 -4
1 2 2 2 2 2 1 2 1 2 2 1 3 3 3 2 2 3 3 4 2 4 3 5 5 1 -1 -1 -1 -2 -2 -3 -4 -4 -4 -4 -3 -4 -4 -3 -3 -5 -6 -6
2 2 1 2 2 2 0 1 1 2 1 0 2 3 0 1 3 2 4 4 3 2 3 5 1 -0 -1 -2 -2 -3 -3 -5 -5 -6 -6 -6 -6 -6 -7 -6 -7 -6 -7 -8
2 3 3 2 1 2 2 2 2 1 -0 0 0 3 2 2 1 3 3 2 3 4 4 2 -1 -2 -3 -3 -3 -4 -4 -6 -8 -9 -8 -9 -9 -9 -9 -9 -8 -8 -9 -9
2 2 1 2 -1 0 0 0 0 1 1 0 1 1 2 2 2 3 1 4 4 1 -1 -4 -2 -3 -4 -4 -4 -5 -6 -9 -10 -11 -12 -12 -11 -11 -11 -11 -10 -10 -10 -10
-1 -2 0 0 2 1 1 2 1 0 1 1 1 0 1 3 1 3 3 3 -0 -4 -5 -5 -5 -5 -6 -6 -6 -8 -9 -10 -10 -10 -11 -11 -11 -12 -12 -12 -11 -11 -11 -11
-3 -5 -3 -1 -2 -2 -2 -2 -2 -2 1 2 1 0 2 1 1 -1 -3 -6 -6 -4 -5 -7 -8 -7 -7 -9 -9 -9 -8 -9 -9 -10 -10 -11 -11 -11 -12 -14 -13 -13 -12 -12

GFSNW_925_temp_117.txt.gz
Temp
3 3 2 2 3 3 3 0 0 4 5 2 1 3 4 6 6 6 6 6 6 6 7 7 7 8 9 11 11 11 12 11 11 12 13 13 13 12 12 14 13 13 14 16
2 2 2 2 2 3 3 -1 0 3 4 1 1 2 4 5 5 5 6 6 7 7 7 6 7 7 9 10 10 11 11 10 10 11 13 13 12 12 12 12 12 12 13 16
2 2 2 2 2 3 3 -2 -0 0 1 1 3 2 3 4 5 5 5 6 6 6 6 7 6 7 9 9 10 10 11 11 10 9 10 12 11 12 12 12 12 12 14 15
2 2 2 2 2 3 3 -1 -1 1 -0 2 2 3 3 3 3 5 5 5 6 5 5 6 7 8 7 9 10 10 10 10 11 11 11 11 11 11 12 12 12 12 14 13
2 2 2 2 2 2 2 -1 -0 1 2 2 2 2 3 3 4 4 4 4 6 5 5 5 5 6 8 8 9 8 9 9 10 10 10 11 10 11 11 11 11 11 12 12
2 2 2 2 2 2 1 -1 1 0 1 2 2 2 3 3 3 5 5 4 4 5 6 6 6 6 6 7 7 8 8 9 9 9 10 10 9 11 11 11 12 12 11 13
2 2 1 2 2 2 2 1 0 -1 1 2 3 3 3 3 3 3 5 6 6 7 6 5 6 5 6 6 7 7 8 8 8 8 8 7 11 11 11 11 12 12 12 12
2 2 1 2 2 2 2 2 1 -1 -1 1 2 2 3 4 4 4 5 6 6 5 4 6 7 7 7 8 7 7 7 8 7 7 8 10 10 11 11 11 12 12 11 11
2 2 2 2 2 2 2 2 2 -0 -1 1 2 2 2 3 4 4 5 5 4 4 4 5 6 6 7 7 7 7 6 7 7 6 7 7 10 11 12 11 10 9 8 7
2 2 2 2 2 2 2 2 2 1 0 1 2 2 3 3 3 3 3 4 4 4 4 4 5 6 7 6 6 6 7 6 6 7 7 8 10 10 11 10 10 9 7 6
2 2 2 2 2 2 1 1 1 1 1 1 2 2 3 3 3 3 3 3 3 3 4 4 5 5 6 5 6 5 6 7 7 7 7 7 8 10 9 9 8 7 8 8
2 1 2 2 2 2 1 1 1 1 1 1 1 2 2 2 3 3 3 3 3 4 3 3 3 4 5 5 5 6 6 6 6 7 8 8 8 8 9 8 8 8 8 8
2 2 2 2 2 2 1 1 1 0 1 1 2 2 4 3 2 3 2 2 4 4 4 4 4 4 4 5 6 6 6 6 6 6 7 7 7 8 9 8 8 8 6 6
1 2 2 2 2 2 1 1 1 1 0 1 2 3 2 5 5 3 2 3 3 3 3 4 4 4 5 5 6 6 6 6 6 7 6 5 6 5 6 6 6 4 4 4
1 2 2 2 2 2 1 1 1 1 2 1 1 2 4 4 3 3 2 1 2 3 3 3 3 5 4 5 5 6 5 5 5 6 4 4 4 2 3 4 4 3 4 3
2 2 2 2 2 1 1 1 0 1 1 1 1 2 2 3 4 1 1 1 2 2 3 3 4 4 5 5 6 5 5 3 2 3 2 3 3 4 3 2 1 1 1 1
2 1 1 1 2 1 0 1 1 1 1 1 1 1 2 3 2 1 1 2 2 3 3 3 4 5 4 4 5 5 3 3 3 2 4 4 3 3 3 3 2 1 0 -1
1 1 2 1 1 1 0 2 1 1 1 1 1 1 2 3 4 4 3 2 3 3 4 4 4 5 4 5 4 2 2 2 2 1 2 1 1 2 2 2 2 1 0 -1
1 2 2 1 0 0 1 2 1 0 1 1 2 2 2 3 5 5 4 3 4 4 3 4 5 5 5 3 2 1 -0 -0 -0 1 1 1 0 0 1 1 1 0 -0 -1
2 1 0 0 0 2 2 1 1 0 1 2 1 2 1 3 3 4 4 4 5 5 5 4 5 4 2 1 0 -1 -1 -1 -1 -1 -1 -1 -1 -1 -1 -1 -1 -1 -1 -2
0 -0 1 1 1 1 1 2 2 1 2 1 2 2 2 3 4 4 4 5 4 5 5 6 6 4 1 0 -1 -1 -2 -2 -3 -3 -3 -3 -2 -3 -3 -2 -2 -3 -4 -4
1 1 1 1 1 2 2 1 2 2 3 2 3 3 3 3 3 4 4 5 3 5 4 5 6 1 -1 -1 -1 -2 -3 -4 -4 -5 -5 -5 -4 -5 -5 -4 -4 -5 -6 -7
1 2 1 2 2 2 1 2 1 2 2 1 2 3 2 2 3 3 4 4 5 3 4 5 2 -0 -1 -2 -2 -2 -3 -5 -6 -6 -6 -7 -7 -7 -8 -7 -8 -7 -7 -8
1 2 3 2 1 2 2 3 3 2 1 1 2 3 3 3 3 4 4 4 3 5 5 3 -0 -2 -2 -3 -3 -3 -4 -6 -9 -8 -8 -9 -9 -10 -11 -11 -10 -9 -9 -9
2 2 2 1 0 1 0 1 1 0 -0 2 2 3 3 3 3 3 3 4 4 3 2 -2 -2 -3 -3 -3 -4 -4 -5 -8 -9 -11 -12 -12 -12 -12 -12 -12 -11 -11 -10 -10
-1 -2 0 0 2 2 2 2 1 1 1 1 2 2 3 3 3 4 4 4 3 -1 -3 -3 -3 -4 -5 -6 -6 -7 -8 -9 -10 -11 -11 -11 -12 -13 -13 -12 -12 -12 -12 -11
-3 -3 -3 -1 -1 -1 -2 -2 -2 -2 1 4 2 2 3 2 3 1 -2 -1 -4 -3 -4 -4 -5 -5 -6 -7 -8 -8 -9 -9 -10 -10 -11 -11 -12 -12 -12 -12 -13 -13 -13 -12

GFSNW_925_temp_120.txt.gz
Temp
3 3 3 3 3 3 3 5 6 5 4 8 8 9 7 6 8 9 8 8 9 9 9 9 10 10 11 13 12 12 14 13 13 15 16 14 13 10 11 13 16 18 19 19
3 3 3 3 3 3 3 5 7 5 5 7 7 6 7 7 7 8 8 8 9 9 9 8 10 10 11 12 12 11 12 12 12 14 15 13 11 14 13 12 12 16 16 19
3 2 2 3 3 3 3 5 5 7 7 7 6 5 6 6 7 7 8 8 9 8 8 10 8 10 11 11 11 11 11 12 11 12 10 12 12 11 13 13 13 14 17 19
3 2 2 2 3 3 3 4 5 6 5 6 6 6 6 6 6 7 8 8 8 8 7 9 9 10 10 10 11 12 12 11 12 13 13 13 12 12 13 13 14 14 16 17
2 2 2 2 2 3 3 3 5 5 6 6 6 5 6 6 7 6 6 6 6 7 7 6 6 8 8 10 11 11 12 11 12 11 13 13 12 13 14 14 14 15 16 16
2 2 2 2 2 3 4 2 4 6 4 5 6 6 6 5 5 7 7 5 6 8 8 8 9 9 9 9 9 10 10 10 10 10 12 12 11 13 14 14 15 15 14 16
2 2 2 2 2 3 4 3 4 5 5 6 6 6 6 5 6 6 8 8 8 9 9 9 10 10 9 10 10 10 9 10 10 9 11 9 13 15 14 13 14 15 15 16
2 2 2 2 2 2 3 2 4 5 5 6 6 5 5 7 7 7 7 8 8 8 8 8 10 11 10 11 12 11 11 9 9 9 10 12 13 14 13 13 14 15 15 15
3 2 2 2 2 2 2 3 2 4 4 6 5 6 6 6 7 8 7 8 8 8 8 8 8 9 9 9 9 9 8 9 9 10 8 9 12 13 13 14 12 12 12 10
2 2 2 2 2 2 2 3 2 4 4 6 5 6 6 6 6 7 7 6 7 8 7 7 8 8 9 7 7 6 7 7 8 8 8 10 12 12 13 10 11 11 9 6
2 2 2 2 2 1 2 3 2 3 4 5 5 5 6 6 6 6 7 7 7 7 6 7 8 7 8 6 6 6 7 7 8 9 8 9 11 12 9 11 11 8 7 7
2 2 2 2 2 2 2 3 2 1 2 5 3 3 4 5 6 6 6 6 5 6 6 7 6 7 7 6 7 7 7 6 7 8 9 9 9 8 10 10 9 7 7 7
2 2 2 2 2 2 2 3 1 1 2 3 4 6 5 4 3 4 5 7 7 7 7 4 6 6 7 6 7 6 6 6 7 6 6 5 5 4 5 7 6 5 5 6
2 2 2 2 2 2 1 2 1 1 2 3 6 4 4 5 4 4 4 6 6 6 7 5 6 6 8 7 6 7 6 6 6 6 5 5 5 4 2 3 3 3 6 6
2 2 2 2 2 2 2 1 1 1 3 3 5 5 6 5 5 4 4 5 5 6 5 5 5 7 7 8 8 7 6 4 5 6 3 4 4 2 3 3 3 3 5 5
2 2 2 2 2 1 1 1 1 1 1 3 4 7 6 5 5 5 5 5 5 5 4 5 6 8 6 6 7 6 5 3 2 3 4 4 4 5 4 4 3 3 4 3
2 2 2 2 2 1 2 3 1 1 1 2 3 6 7 5 5 5 6 5 4 5 5 5 6 7 5 6 7 5 5 3 3 4 4 5 3 2 4 4 4 3 2 1
1 2 1 2 1 1 2 2 1 1 1 1 2 4 6 6 7 7 6 5 4 5 6 6 6 6 5 6 5 5 3 3 2 3 3 2 3 3 3 3 4 4 3 1
1 1 1 1 1 1 2 1 1 1 1 3 2 4 6 6 7 6 5 4 4 6 5 6 6 8 6 4 4 3 2 2 2 3 3 3 2 2 1 2 2 2 1 1
0 0 0 1 0 1 2 1 1 1 2 2 3 6 5 7 6 6 5 4 6 6 6 6 5 6 3 2 2 2 1 1 1 1 1 1 1 0 0 0 0 -0 -0 -1
-0 -0 1 1 1 1 2 2 2 3 3 3 5 6 6 7 6 6 7 6 6 7 7 6 7 6 2 2 1 1 1 0 0 -0 -1 -1 -1 -1 -1 -1 -1 -2 -2 -3
1 1 1 1 2 3 3 3 4 3 5 6 3 4 5 6 6 6 5 6 5 7 6 6 8 2 1 1 1 -0 -1 -1 -1 -2 -2 -3 -3 -4 -3 -3 -3 -4 -5 -6
0 1 2 2 3 3 4 3 3 4 5 5 4 4 5 5 5 5 5 6 6 7 6 7 4 1 1 1 1 0 -1 -3 -3 -3 -4 -4 -5 -6 -7 -7 -7 -7 -6 -7
1 2 3 3 3 5 5 6 6 6 5 5 5 5 5 5 4 5 5 6 5 6 6 6 2 1 0 0 -0 -0 -2 -4 -7 -6 -6 -7 -8 -8 -9 -10 -10 -8 -8 -8
1 2 4 3 5 4 4 4 4 3 5 5 4 5 5 5 5 5 5 5 6 7 6 2 1 -0 -1 -1 -2 -2 -3 -5 -6 -7 -9 -9 -10 -10 -10 -11 -10 -10 -10 -9
1 1 3 3 4 3 3 3 2 3 5 5 6 5 5 5 6 5 6 6 6 4 1 0 0 -2 -3 -3 -4 -4 -6 -6 -7 -8 -8 -9 -10 -10 -10 -11 -11 -11 -11 -10
-0 1 -1 -0 2 3 1 2 1 0 4 5 5 5 6 5 6 5 4 5 1 0 -0 -1 -2 -2 -3 -4 -5 -6 -6 -6 -7 -8 -9 -9 -10 -11 -10 -9 -10 -11 -11 -11

GFSNW_925_temp_123.txt.gz
Temp
3 3 3 3 3 4 5 9 9 8 7 12 13 13 11 7 11 11 11 11 11 11 12 12 12 12 13 15 14 13 14 12 13 15 17 16 14 14 10 13 16 17 18 19
3 3 3 3 3 4 7 9 11 8 8 10 11 10 10 10 10 11 11 10 11 12 11 10 12 12 14 14 13 13 12 13 11 14 17 15 13 12 12 11 11 12 15 16
3 3 3 3 3 4 5 8 8 11 11 12 11 9 9 9 10 10 10 10 11 11 10 12 10 11 13 12 13 12 12 12 12 12 14 10 12 11 13 13 12 14 13 13
2 3 3 3 3 4 5 6 9 10 8 9 10 10 9 8 9 10 10 10 10 9 8 10 10 10 10 13 13 13 12 11 12 13 15 15 15 14 14 12 13 13 16 17
3 2 2 3 3 4 7 5 9 10 10 9 9 6 9 9 9 8 8 8 9 9 9 8 7 10 10 10 11 12 13 9 12 12 14 15 14 15 15 15 14 15 16 17
2 2 2 3 3 4 7 7 8 10 7 9 10 10 8 8 7 9 9 8 8 9 10 10 11 11 11 11 11 10 11 11 11 11 13 13 13 15 15 16 16 15 15 17
2 2 2 3 3 4 7 8 9 8 9 10 10 9 9 8 9 8 10 10 10 11 11 11 13 13 13 13 13 13 11 11 11 10 11 10 14 16 16 15 15 16 17 18
2 2 2 2 3 4 6 6 8 9 9 10 8 8 8 9 10 10 10 10 10 10 10 10 11 12 12 13 13 13 13 11 10 8 9 11 13 13 14 14 15 17 17 17
3 3 2 2 3 3 5 6 6 8 8 9 9 9 9 9 10 10 10 11 10 10 10 10 9 9 10 10 9 9 8 8 9 10 8 9 11 14 15 15 13 14 13 12
3 2 2 2 2 3 4 6 5 7 6 9 8 9 9 9 9 9 10 9 10 11 9 8 9 10 11 9 7 7 9 9 8 10 9 11 10 13 14 11 10 11 10 7
2 2 2 2 2 3 3 5 4 6 6 8 8 8 8 9 9 9 10 9 8 9 8 8 9 9 9 8 8 6 7 7 9 9 9 9 7 12 9 9 11 8 7 5
1 2 2 2 2 3 3 4 4 4 5 7 6 6 7 7 8 8 9 9 8 8 7 8 8 8 9 7 7 8 7 6 7 7 7 6 5 5 5 5 7 6 5 5
1 2 2 2 2 2 3 3 3 3 3 5 7 8 8 6 6 7 8 10 9 9 8 7 7 7 10 7 8 7 6 7 6 6 6 5 4 4 3 3 3 4 5 7
2 2 2 2 2 2 2 3 4 4 5 5 8 8 7 7 7 7 7 8 8 8 8 7 7 7 10 8 9 8 7 7 6 7 6 6 6 4 3 3 3 4 4 7
2 2 2 2 2 2 2 2 3 4 4 4 7 8 8 8 8 7 7 7 8 8 6 6 7 9 9 9 10 7 8 5 6 6 5 4 4 3 5 4 4 5 5 5
2 2 2 2 2 2 2 2 2 3 2 4 5 9 9 8 8 8 8 8 8 7 5 7 8 9 7 7 8 7 7 4 4 4 6 6 5 5 5 5 5 5 5 4
2 2 2 2 2 2 3 4 2 2 2 3 4 8 9 8 8 8 8 8 8 7 5 5 7 8 7 7 8 6 7 6 5 5 5 5 5 4 4 5 5 6 4 3
2 2 2 2 2 2 3 2 2 1 3 4 3 6 8 8 8 7 8 6 5 4 6 8 8 8 7 7 7 7 6 6 6 6 6 5 6 6 5 5 4 5 4 3
2 2 2 1 1 2 4 2 2 2 2 3 3 5 7 9 9 8 7 5 4 7 5 7 8 8 7 6 6 5 5 5 5 6 6 6 5 5 4 4 3 2 2 1
1 0 1 1 1 2 2 1 2 2 2 2 4 8 7 9 8 7 6 5 6 6 8 9 7 9 5 5 4 4 4 4 4 4 4 3 3 3 3 3 2 1 -0 -1
0 0 3 2 2 2 3 2 3 4 3 5 6 8 8 10 7 7 9 7 7 7 8 8 8 7 3 3 3 4 3 3 3 2 2 2 1 1 1 1 0 -1 -3 -3
2 3 1 2 3 3 3 4 5 5 7 9 7 7 8 8 8 7 7 7 7 7 8 7 9 3 3 4 3 3 2 1 1 0 0 -0 -1 -2 -2 -2 -3 -5 -5 -5
2 3 2 2 3 3 4 4 5 6 8 8 7 5 6 6 7 6 5 5 7 9 7 9 5 3 3 4 3 2 1 -2 -1 -1 -2 -3 -3 -4 -6 -6 -7 -7 -6 -7
3 2 3 3 4 6 8 8 8 8 8 8 7 5 6 6 5 6 5 7 7 7 7 8 5 3 3 2 2 2 1 -2 -5 -4 -4 -5 -7 -7 -7 -8 -8 -8 -8 -8
2 3 4 4 7 7 6 7 8 7 8 8 7 6 7 6 5 6 7 6 7 8 7 4 2 2 2 1 0 -0 -2 -3 -4 -5 -6 -7 -8 -8 -8 -8 -9 -9 -9 -8
1 2 3 4 5 4 4 5 5 6 8 7 7 5 5 6 7 6 7 7 8 5 3 2 2 0 -1 -1 -2 -3 -4 -4 -5 -5 -6 -6 -8 -8 -8 -8 -8 -9 -9 -9
2 3 2 2 2 3 3 3 3 3 5 5 6 5 6 7 7 7 8 6 4 2 1 0 -1 -1 -2 -3 -3 -4 -4 -4 -5 -5 -6 -7 -8 -8 -6 -7 -7 -8 -8 -9

GFSNW_925_temp_126.txt.gz
Temp
3 3 3 3 4 5 6 10 10 9 9 12 15 14 13 8 13 13 12 12 12 12 12 12 12 12 14 14 14 13 14 12 11 13 16 17 16 10 10 11 12 13 16 17
3 3 3 3 4 4 6 11 12 10 9 11 12 12 12 12 12 13 12 12 12 12 12 10 12 12 13 13 11 13 12 9 8 11 14 15 12 12 13 10 10 11 12 16
3 3 3 3 4 4 4 10 9 12 12 13 13 11 11 11 11 11 12 11 12 11 11 12 11 11 11 12 9 10 11 11 11 11 12 10 12 13 15 12 10 12 13 13
3 3 3 3 4 5 5 6 11 12 10 11 12 12 11 10 10 11 12 12 11 10 9 10 11 11 12 12 12 9 10 10 12 13 13 14 15 15 15 14 13 12 13 13
2 3 3 3 4 5 6 6 11 11 11 11 11 8 11 11 11 10 10 10 10 10 9 9 9 10 10 10 12 10 10 7 7 8 12 14 13 14 15 16 15 15 14 14
3 2 3 3 4 4 9 9 10 12 9 11 11 11 11 10 9 10 11 10 10 11 11 11 11 11 11 11 11 12 11 11 10 10 12 12 12 14 15 16 16 16 14 15
2 3 3 3 4 4 4 9 11 9 9 11 11 10 10 9 9 9 11 12 11 11 12 12 13 14 13 12 8 10 11 10 10 10 11 9 13 13 15 16 16 16 16 17
2 3 3 3 4 4 4 8 10 10 10 12 10 10 9 10 11 10 11 12 11 11 11 10 11 11 11 10 10 11 11 10 9 9 10 12 13 11 13 14 14 13 13 11
2 3 3 3 4 4 4 7 7 10 9 11 11 10 10 10 11 11 11 12 11 11 11 10 9 8 10 10 10 12 10 10 8 10 9 10 7 7 11 14 12 9 10 8
3 3 3 3 4 4 4 6 6 9 8 10 10 10 10 11 10 10 11 10 10 12 9 9 9 10 11 9 8 7 8 9 8 9 9 9 6 8 11 10 7 8 8 6
2 2 2 3 4 4 4 5 5 7 7 9 9 10 10 10 10 10 10 10 9 9 8 9 9 9 9 8 9 7 7 7 9 8 8 7 5 8 6 4 5 5 5 5
2 2 2 3 4 4 3 5 5 5 7 8 7 8 8 9 9 9 10 10 10 9 8 8 8 8 9 9 8 8 7 6 7 7 6 5 4 4 3 3 4 4 4 5
2 2 2 2 3 3 3 4 4 5 5 6 8 8 9 8 8 8 8 10 10 9 9 8 8 8 10 8 8 8 8 6 6 6 6 6 4 4 3 3 3 4 4 5
2 2 2 2 3 3 3 4 5 4 6 5 9 9 9 8 8 8 8 8 8 9 9 8 7 8 10 9 9 9 7 6 6 6 6 6 6 4 3 4 3 4 5 5
2 2 2 2 3 3 3 3 4 4 4 4 7 9 9 9 8 8 8 8 8 8 7 6 7 9 9 10 10 7 8 6 6 6 4 4 4 4 5 5 5 5 5 4
2 2 2 2 3 2 2 3 5 4 4 4 5 9 10 9 9 9 9 9 8 8 7 7 9 10 8 7 8 7 7 6 5 4 6 4 6 6 6 5 5 5 5 4
2 2 2 2 3 2 2 4 3 3 3 4 5 7 10 9 9 9 9 9 9 8 6 7 8 8 8 7 7 6 8 8 7 7 7 5 6 6 6 6 5 5 4 3
2 2 2 2 2 2 2 3 3 3 4 6 4 5 9 9 9 7 8 7 6 6 6 7 8 9 7 7 7 8 7 8 7 7 7 7 7 6 6 5 4 3 2 2
2 2 2 1 2 3 4 3 3 3 3 3 4 5 7 10 9 6 5 6 5 7 5 7 8 8 7 6 7 6 6 6 5 6 7 6 5 4 4 4 3 1 0 -0
1 1 1 1 2 3 3 2 3 3 2 4 3 7 7 10 8 6 6 5 6 6 7 9 7 9 6 6 6 6 5 5 5 4 3 3 2 2 2 2 1 -0 -2 -2
1 0 3 4 3 4 4 2 3 4 3 5 6 7 7 10 8 7 8 6 7 7 8 8 8 6 4 5 5 5 4 4 3 3 2 2 1 0 -1 -1 -2 -3 -4 -4
2 3 2 2 4 3 2 4 5 5 6 9 7 8 9 9 9 8 7 7 7 7 8 7 8 4 5 5 4 4 2 2 2 1 0 -1 -1 -3 -3 -4 -4 -5 -6 -6
3 4 2 3 3 3 4 4 6 6 8 8 8 6 8 7 8 6 6 5 7 9 8 8 6 5 5 5 4 3 1 -2 -1 -1 -2 -3 -4 -5 -6 -6 -7 -7 -7 -7
2 2 2 2 4 5 7 8 8 9 9 8 8 5 6 6 6 6 5 7 8 7 8 7 5 4 4 3 2 3 0 -3 -4 -4 -4 -5 -7 -7 -7 -8 -8 -8 -8 -8
3 2 3 4 6 7 6 7 8 9 9 8 6 6 6 5 5 6 7 6 7 8 7 4 3 3 3 2 1 -0 -1 -3 -3 -4 -6 -6 -8 -8 -8 -7 -8 -9 -8 -9
3 3 3 4 5 3 3 3 5 6 7 8 7 6 5 5 6 6 7 8 8 5 3 2 2 1 0 -1 -1 -3 -4 -4 -4 -5 -5 -6 -7 -7 -7 -7 -8 -8 -8 -9
2 3 2 2 3 3 3 4 4 4 5 5 6 5 6 8 7 7 8 5 3 2 1 0 -1 -1 -2 -2 -3 -4 -4 -4 -5 -5 -6 -6 -6 -6 -6 -6 -7 -7 -8 -8

GFSNW_925_temp_132.txt.gz
Temp
4 4 4 4 4 4 5 5 4 8 8 6 6 8 11 12 12 12 12 11 11 10 10 10 10 10 10 11 10 9 10 8 7 9 10 11 10 10 8 8 8 9 10 10
3 3 3 2 3 4 5 5 5 8 8 6 4 10 11 11 12 11 11 11 11 11 9 9 10 10 11 10 9 9 9 7 4 9 10 11 11 11 11 9 8 9 8 10
3 3 2 2 3 4 5 5 4 6 6 7 8 9 10 9 10 11 11 11 10 9 9 9 8 8 10 9 9 11 9 7 8 7 8 8 8 11 11 11 9 10 10 9
3 3 2 2 3 5 6 4 5 7 6 6 8 9 10 9 9 11 11 9 9 8 8 7 8 8 8 9 10 9 8 6 8 8 9 9 10 10 10 10 11 9 12 11
3 3 2 3 4 5 5 4 6 6 7 8 8 8 9 9 10 8 9 8 9 8 7 5 5 7 7 7 8 8 7 4 5 7 9 10 10 7 8 8 8 9 10 9
3 3 2 3 4 5 5 7 7 6 6 6 6 6 9 8 8 9 9 7 7 7 8 7 7 7 7 7 7 6 7 7 7 8 9 9 8 6 7 7 7 8 8 8
3 2 3 4 5 6 6 6 6 3 5 7 8 8 8 7 7 8 10 9 8 9 8 7 8 8 8 8 7 6 7 6 6 7 8 7 7 8 8 7 6 6 6 7
2 2 3 4 5 6 6 6 5 5 4 8 9 8 7 8 8 8 9 10 9 8 7 5 7 7 8 9 8 7 5 6 7 5 7 9 8 7 6 6 6 5 5 6
3 3 4 4 5 6 6 6 7 5 4 6 9 7 8 6 6 8 8 9 8 7 3 4 7 6 8 7 7 8 7 6 4 6 7 6 6 6 7 7 6 4 5 5
3 3 4 4 5 6 6 5 7 6 1 5 7 5 6 7 6 4 6 8 7 5 1 2 4 6 8 6 3 3 3 2 2 3 4 6 5 5 7 6 3 4 4 4
3 3 4 5 5 6 7 5 6 6 1 4 5 6 5 5 4 4 5 4 3 2 2 1 4 4 4 4 6 3 3 3 1 3 -0 3 4 6 5 4 4 3 3 3
2 3 4 4 5 5 6 5 6 7 2 3 6 7 7 7 7 4 4 4 4 1 0 -1 -0 3 2 4 4 4 3 4 2 5 5 4 4 4 3 3 3 3 3 3
2 3 4 4 5 5 5 5 5 6 -0 2 4 6 7 8 8 8 4 3 6 5 3 -0 1 3 2 1 3 3 4 5 3 4 4 4 3 3 2 3 3 3 4 3
2 3 3 4 4 4 5 4 4 5 2 1 4 7 8 8 7 7 7 6 6 4 2 1 -0 2 4 4 4 3 3 5 4 3 4 4 4 3 2 3 3 3 3 2
2 3 3 3 4 4 4 4 4 5 4 1 2 5 8 8 8 7 7 7 4 2 1 -1 1 3 4 3 4 4 5 5 2 2 3 3 3 3 4 4 3 2 1 1
2 2 3 3 4 4 4 0 4 4 5 -0 1 4 6 7 7 7 6 5 3 2 2 1 2 4 3 1 2 5 5 5 4 3 4 3 3 4 4 2 1 1 0 -1
2 2 2 3 3 4 3 1 3 4 4 -0 -0 2 4 7 6 5 4 5 3 3 1 0 3 3 4 0 4 5 6 5 5 5 5 4 3 2 2 1 0 -0 -1 -2
2 2 2 3 3 3 3 3 3 4 4 1 -2 1 3 7 3 4 2 2 2 2 2 1 3 3 2 3 5 5 5 5 4 3 3 2 1 1 0 -1 -2 -2 -3 -3
2 2 2 3 3 2 3 3 3 3 3 0 -3 0 1 5 3 3 3 2 0 1 -1 1 2 3 5 5 4 3 3 4 3 2 1 1 -1 -1 -1 -3 -3 -4 -4 -4
2 2 2 -3 2 3 3 3 0 -1 0 -0 -1 0 1 5 2 4 3 3 4 3 3 2 2 2 4 3 3 2 2 1 2 1 -0 -1 -2 -3 -3 -4 -5 -5 -6 -5
2 -0 1 2 2 3 -0 -1 -1 -2 -1 1 1 1 1 3 2 1 2 1 2 2 3 4 4 4 3 3 1 1 0 -0 -1 -2 -3 -4 -4 -4 -4 -5 -6 -7 -7 -7
3 2 2 2 1 1 -1 -1 0 1 3 1 0 1 2 2 2 1 0 2 0 3 4 5 6 3 2 2 0 -1 -2 -2 -3 -4 -4 -5 -5 -6 -6 -7 -7 -8 -8 -9
3 2 -1 -1 0 -2 -2 -1 1 0 2 0 1 1 2 1 1 1 -2 1 4 3 2 4 2 1 3 1 -2 -3 -3 -4 -4 -5 -5 -6 -6 -7 -7 -7 -8 -8 -9 -9
-1 -1 -0 0 0 0 2 2 2 2 0 1 2 0 1 -1 1 -2 -0 1 2 -0 1 4 0 0 -1 -1 -2 -3 -4 -5 -5 -5 -6 -6 -7 -7 -7 -7 -8 -8 -8 -9
-2 -1 -2 -1 -1 -1 1 -0 -0 1 0 2 2 0 -0 -2 -1 0 1 2 5 2 1 -1 -2 -1 -2 -3 -3 -4 -4 -6 -6 -6 -6 -7 -7 -8 -8 -7 -8 -8 -8 -8
-1 -1 -1 -1 -1 -0 2 2 3 -0 1 1 2 -0 -1 -0 3 3 3 2 2 1 0 -1 -2 -2 -3 -3 -4 -5 -5 -5 -5 -6 -6 -7 -7 -7 -8 -8 -8 -8 -8 -8
-2 1 -4 -3 1 2 1 1 1 -0 -0 4 3 2 3 1 -0 2 2 1 1 -1 -2 -2 -3 -3 -4 -5 -5 -5 -5 -5 -5 -6 -6 -7 -7 -7 -8 -8 -9 -9 -9 -9

GFSNW_925_temp_138.txt.gz
Temp
8 7 5 5 5 5 6 5 5 6 7 5 4 5 8 11 11 11 10 9 9 9 9 9 9 9 8 9 9 8 8 7 6 7 8 9 9 7 5 4 6 6 7 8
7 5 5 5 5 5 6 4 4 5 6 3 2 8 9 10 10 10 10 9 10 9 8 7 8 8 8 8 9 8 8 6 4 8 8 9 8 9 9 7 6 6 6 9
6 5 4 5 5 6 8 4 4 4 5 4 6 8 8 9 9 9 9 9 9 8 8 7 7 8 9 7 8 10 8 7 7 6 8 6 7 7 7 7 7 8 7 8
5 4 4 4 6 7 8 3 4 5 4 3 7 8 8 8 8 9 9 9 8 7 7 7 7 7 7 8 9 7 7 5 6 7 7 7 7 7 6 6 7 7 8 8
4 3 4 5 6 6 6 3 3 5 7 7 7 8 8 8 8 8 8 7 7 7 7 6 6 7 6 7 7 7 5 3 4 6 7 6 7 6 6 7 7 6 7 7
3 3 4 4 4 6 4 4 6 6 5 5 6 6 8 8 7 8 8 6 6 7 7 6 7 6 6 7 7 5 5 5 6 7 7 7 6 6 6 6 5 5 6 6
3 3 3 4 5 7 6 6 5 4 5 7 7 8 8 7 8 7 7 7 7 8 6 6 5 5 5 5 5 4 5 6 6 6 7 6 5 7 6 6 5 5 6 6
2 3 3 4 6 6 6 6 5 4 4 7 7 7 7 7 8 7 7 8 7 6 6 5 7 6 8 8 7 4 5 5 6 4 5 7 6 6 5 5 5 4 4 5
3 3 4 5 6 6 7 7 6 5 6 7 8 7 7 7 5 6 6 6 5 4 3 4 6 4 7 6 7 5 4 4 2 4 5 6 5 4 5 5 5 4 4 4
3 4 5 6 6 7 8 6 6 5 3 4 6 5 6 5 4 4 6 6 6 4 0 2 4 6 7 5 3 -0 2 0 0 4 -2 2 4 3 5 5 3 3 3 3
4 4 5 6 7 7 7 5 7 6 2 3 5 6 4 4 4 4 4 4 2 1 1 1 3 3 4 3 5 0 -0 2 -1 0 -2 2 3 4 4 2 3 3 2 2
4 5 6 6 7 8 8 6 7 8 3 3 5 5 6 8 6 2 2 3 2 0 -1 -2 -0 3 1 3 2 2 1 0 0 2 2 2 4 3 2 2 2 3 2 1
4 5 6 7 7 8 9 7 7 8 2 3 3 4 6 8 8 8 3 2 3 2 1 -2 -0 3 2 -0 2 2 1 5 4 2 3 3 2 3 1 2 1 2 2 1
5 5 6 7 7 8 8 7 6 8 1 1 4 6 5 6 8 8 7 3 3 1 1 -1 -1 2 3 3 3 2 0 4 4 2 3 3 3 3 1 2 1 1 0 -1
5 5 6 6 7 7 7 6 5 7 4 2 3 4 5 6 7 6 6 5 1 1 1 -2 0 2 2 2 2 -1 2 3 2 1 1 -0 1 1 2 1 -0 -1 -2 -2
4 4 5 5 6 7 9 1 6 7 8 1 2 2 5 5 5 5 3 3 0 -0 1 0 1 2 2 -0 1 4 3 3 2 2 2 2 1 -0 0 -1 -2 -2 -3 -4
4 4 4 5 6 7 1 1 4 6 6 0 0 2 3 5 4 1 1 2 0 1 -1 -0 2 2 1 -0 2 4 4 3 3 3 2 1 0 -1 -2 -2 -3 -3 -4 -4
4 4 5 4 4 4 3 3 5 6 3 0 -1 2 3 5 2 2 -0 1 1 0 1 0 2 1 0 1 3 4 2 1 1 1 0 -1 -2 -3 -4 -4 -4 -4 -5 -5
4 5 5 5 4 1 2 3 5 5 3 -1 -2 1 1 2 2 3 2 -0 -1 -0 -1 0 1 1 2 3 3 2 1 3 0 -0 -1 -1 -2 -3 -4 -5 -5 -5 -6 -6
4 5 3 -1 1 2 3 4 -1 -2 -2 -1 0 0 1 1 2 3 0 -1 1 2 3 1 0 2 2 2 3 1 0 0 0 -0 -1 -1 -2 -3 -4 -5 -6 -6 -7 -7
4 -1 1 1 2 3 -2 -3 -2 -2 -1 0 1 1 2 1 1 3 -0 1 1 2 2 2 2 3 1 -0 0 -0 -1 -2 -3 -3 -4 -4 -4 -4 -5 -5 -6 -7 -8 -9
3 2 2 2 0 -2 -1 -5 -1 1 3 0 1 1 2 0 0 1 1 1 1 4 2 2 2 0 -1 -1 -1 -2 -3 -3 -4 -4 -4 -5 -5 -6 -6 -6 -7 -8 -9 -9
3 1 -1 -0 -2 -2 -3 -2 -1 -1 1 -1 -0 -1 0 -1 -0 -1 -3 -2 -0 2 3 3 1 1 -0 -1 -2 -3 -4 -4 -5 -5 -6 -6 -6 -7 -7 -8 -8 -8 -9 -9
-1 -2 -2 -2 -2 -2 -0 1 1 -0 -0 0 0 -1 0 -2 -1 -3 -1 -1 1 -0 -0 2 -1 1 -1 -2 -3 -3 -4 -5 -6 -5 -6 -7 -7 -8 -8 -8 -8 -8 -9 -9
-2 -1 -2 -2 -2 -0 0 0 2 1 -1 1 0 -1 -1 -3 -2 -1 -0 -1 1 2 -0 -2 -3 -2 -2 -3 -3 -4 -5 -7 -7 -7 -7 -8 -8 -8 -8 -8 -9 -9 -9 -9
-1 -1 -0 -0 2 1 2 2 1 0 0 -1 -0 -3 -4 -2 -1 -0 -1 1 -0 -1 -3 -2 -4 -3 -3 -3 -3 -5 -5 -6 -6 -6 -7 -7 -8 -8 -9 -9 -9 -9 -9 -10
-1 -1 -2 -2 -2 -0 0 -2 -0 -1 -1 -2 -2 -2 -0 -0 -0 1 0 -2 -3 -5 -2 -6 -4 -3 -4 -5 -5 -6 -6 -7 -6 -7 -7 -7 -8 -8 -9 -9 -10 -10 -10 -10

GFSNW_925_temp_141.txt.gz
Temp
6 6 7 6 5 4 6 4 4 5 7 6 6 8 8 10 10 10 10 10 10 10 9 9 9 9 9 9 9 9 9 9 8 9 10 10 10 9 7 8 7 8 8 10
6 6 7 4 4 5 4 4 3 3 6 5 5 7 9 10 10 10 10 9 10 9 9 9 9 9 8 8 9 9 9 8 8 9 9 9 9 9 9 8 7 8 8 11
5 6 6 4 5 6 6 3 4 4 4 5 7 8 9 9 9 9 9 9 9 9 8 8 8 8 8 8 8 9 9 8 8 9 9 9 8 8 8 8 8 9 9 10
5 6 5 5 5 5 6 3 5 6 5 5 6 9 9 9 9 9 9 9 9 9 7 8 8 8 7 8 9 8 8 7 7 8 8 8 8 8 8 7 8 8 10 8
6 6 4 5 5 5 5 3 4 5 6 7 6 8 8 9 8 9 8 9 8 8 8 8 7 8 8 8 7 8 6 7 6 7 8 8 7 7 7 8 8 7 8 8
6 5 4 4 4 5 5 4 5 7 6 6 7 7 8 9 8 8 9 7 7 8 7 7 7 7 7 8 8 6 6 6 7 8 8 8 7 7 7 7 5 5 7 6
5 4 3 3 4 5 6 6 5 5 6 7 8 8 8 7 8 7 7 8 8 7 6 6 6 6 6 7 6 6 5 7 7 7 8 7 7 7 7 6 6 5 5 6
4 4 3 3 5 6 7 7 6 5 6 8 7 7 7 7 8 7 8 7 7 6 7 7 8 7 8 7 6 6 7 7 7 6 7 8 6 7 6 5 5 4 4 5
4 3 3 4 5 7 8 7 7 5 7 7 8 8 8 7 7 6 6 5 5 6 6 7 7 7 8 7 6 5 5 5 6 6 6 7 7 6 5 5 6 4 4 4
3 3 3 4 5 6 8 6 7 5 4 5 7 6 7 7 6 6 6 6 6 5 5 6 6 7 8 7 5 3 5 4 5 5 4 6 5 5 5 6 5 4 3 3
2 2 2 3 5 7 8 5 6 6 3 4 5 6 5 5 5 7 5 6 5 4 5 5 6 7 7 6 6 4 5 5 4 3 3 6 4 5 6 4 4 3 3 2
2 3 5 6 8 8 8 5 6 7 4 4 4 4 5 8 6 4 3 5 4 3 2 2 4 5 5 6 6 3 4 5 6 5 7 3 5 3 3 2 2 2 2 2
5 6 7 7 7 8 8 6 7 7 4 5 4 4 6 7 8 8 5 3 3 3 3 2 3 6 5 5 6 5 3 5 5 4 4 4 3 3 3 2 2 2 2 1
5 6 6 7 8 8 9 8 7 8 3 3 4 5 4 5 8 9 7 3 2 2 3 3 4 5 4 5 5 6 5 5 5 4 4 4 2 3 3 2 1 1 0 -1
6 6 7 7 7 7 8 8 7 8 5 3 4 4 4 5 6 5 5 4 3 4 4 3 4 4 4 4 4 4 4 5 5 6 3 3 3 2 2 1 0 -0 -1 -2
6 6 6 7 8 9 10 2 6 7 8 3 3 2 3 4 5 3 3 3 2 3 4 3 3 3 5 4 4 5 4 4 4 5 3 3 2 1 1 0 -1 -2 -3 -3
5 6 6 7 8 9 1 3 6 7 8 2 2 3 3 4 3 1 3 2 2 3 2 3 4 4 4 4 4 5 4 4 4 4 3 2 1 0 -2 -2 -3 -3 -4 -4
5 5 6 6 6 5 3 4 5 6 4 2 1 3 4 4 3 3 1 3 2 2 3 2 4 3 3 4 5 4 3 3 2 1 1 1 -1 -2 -3 -4 -3 -3 -4 -5
5 5 6 6 4 1 3 3 5 6 4 1 0 3 3 2 3 3 2 1 3 1 3 3 4 3 4 5 5 4 2 4 1 0 0 -0 -1 -2 -3 -4 -4 -4 -5 -6
5 5 2 -1 1 2 3 5 -0 -2 -2 0 1 2 2 3 3 3 3 3 3 4 3 2 3 4 3 2 4 3 2 2 1 1 0 -1 -2 -2 -4 -5 -5 -6 -6 -7
4 -0 1 1 2 3 -1 -2 -1 -1 -0 1 1 3 3 2 3 3 1 3 2 3 4 3 3 4 2 1 1 1 0 -1 -2 -2 -2 -3 -3 -3 -4 -5 -6 -7 -8 -9
3 2 2 2 0 -2 -1 -3 -0 2 3 1 3 3 3 1 2 2 2 3 2 4 3 3 4 3 0 0 -1 -1 -2 -2 -3 -3 -4 -4 -5 -5 -5 -6 -7 -8 -9 -10
3 1 -2 -0 -2 -1 -1 -2 0 1 1 1 1 1 2 1 1 1 0 2 3 3 3 5 4 2 1 -0 -2 -2 -3 -4 -4 -5 -5 -5 -6 -7 -7 -8 -9 -9 -9 -10
-1 -3 -3 -2 -4 -0 1 2 2 0 1 2 2 1 3 0 1 -1 2 1 2 2 2 4 2 2 1 -1 -2 -2 -3 -5 -5 -5 -6 -7 -7 -9 -9 -9 -9 -9 -9 -10
-1 -1 -4 -3 -1 1 1 1 2 0 0 1 2 1 1 -0 -0 0 1 2 2 2 3 2 -0 1 -1 -2 -2 -3 -4 -6 -7 -7 -8 -9 -8 -8 -9 -9 -10 -10 -10 -10
-0 -2 1 1 2 2 2 1 1 0 0 0 1 -0 -0 1 1 1 2 2 2 3 1 -0 -1 -2 -2 -2 -3 -4 -5 -6 -7 -8 -8 -9 -9 -9 -9 -10 -10 -10 -10 -10
-1 0 -2 -1 1 1 0 0 1 -0 1 1 0 0 1 1 1 2 2 1 2 -1 -2 -3 -2 -2 -3 -4 -5 -6 -6 -7 -7 -8 -8 -8 -9 -9 -9 -10 -10 -10 -11 -11

GFSNW_925_temp_144.txt.gz
Temp
6 6 6 7 6 5 5 3 4 3 5 6 8 11 12 13 14 13 14 15 15 15 15 14 14 13 14 13 13 13 13 13 13 13 13 13 14 12 11 11 11 11 11 13
6 6 6 6 5 5 5 3 2 3 4 7 9 10 12 13 13 14 13 13 14 13 14 13 13 12 12 12 12 12 12 12 12 12 12 12 12 12 12 10 9 10 10 13
6 6 6 6 5 7 7 3 5 3 4 8 11 10 10 11 11 12 13 13 13 12 12 13 12 11 10 11 12 10 12 12 13 14 13 13 11 12 12 11 10 12 13 13
5 6 6 6 5 6 6 3 6 7 5 6 10 11 10 9 8 11 12 11 13 13 11 12 11 11 10 10 10 11 12 11 12 12 12 12 12 12 12 11 12 11 12 12
5 5 6 5 5 5 4 3 5 7 8 9 9 10 10 10 11 11 11 12 12 12 12 12 11 11 11 11 10 11 11 10 9 10 11 11 11 11 11 11 11 12 12 12
4 5 5 4 5 6 4 3 6 7 7 8 9 11 12 12 12 10 12 12 11 12 11 12 13 13 12 12 11 10 10 11 10 11 11 11 10 11 11 11 9 8 9 10
4 4 5 4 5 7 6 5 7 5 6 9 10 11 12 11 10 10 11 11 12 9 10 11 11 11 11 11 10 10 10 10 10 11 11 10 9 11 10 9 9 8 8 8
4 5 5 4 5 6 7 6 8 7 8 10 11 11 12 11 10 11 11 10 11 10 12 10 10 10 9 10 10 10 11 11 10 10 11 11 9 9 9 8 9 7 7 8
5 5 5 4 4 5 5 6 7 11 9 10 11 11 11 11 10 9 7 9 9 10 10 10 10 9 11 9 8 9 9 10 10 9 9 10 10 8 8 8 8 6 7 7
6 5 4 4 4 5 6 5 7 11 9 11 12 11 12 13 11 10 8 8 9 9 10 9 10 10 11 9 8 7 8 8 8 10 9 10 9 8 8 8 7 6 5 5
5 4 4 4 5 6 8 5 8 10 9 8 10 11 10 11 11 9 9 9 9 9 10 9 10 10 11 10 10 7 8 8 8 8 8 8 9 8 8 6 6 5 4 4
4 4 4 4 6 8 9 6 5 7 9 6 6 5 6 10 12 11 10 10 10 10 9 8 9 9 9 11 10 8 8 8 9 9 9 7 7 7 5 5 5 5 4 4
4 4 4 5 7 7 8 7 7 8 7 8 9 7 6 6 7 9 10 8 8 8 9 9 9 9 11 9 10 9 7 8 7 7 7 8 6 5 5 5 4 4 4 4
4 4 5 5 6 7 8 7 7 9 9 7 6 6 5 5 8 8 9 7 6 7 10 9 9 9 9 10 10 10 9 8 7 6 6 7 5 6 5 5 4 4 3 2
4 4 4 6 7 7 8 8 8 9 10 7 6 7 5 6 7 7 8 8 9 10 9 8 9 9 9 9 9 9 9 9 7 9 6 6 6 4 5 4 4 3 2 2
4 6 7 6 7 9 9 7 7 7 8 8 6 6 6 6 7 7 7 8 9 9 9 8 8 7 9 8 9 9 9 8 8 8 7 6 5 5 4 3 2 1 1 0
5 5 6 8 8 9 5 7 7 8 8 6 6 6 7 6 7 7 8 8 8 9 8 8 9 8 8 7 8 9 8 8 8 8 6 5 5 4 2 2 0 -1 -1 -1
6 7 7 8 7 6 5 4 7 7 7 8 5 5 6 6 7 7 7 8 8 7 8 7 8 7 7 7 8 8 8 7 7 6 6 6 4 2 1 1 0 0 -0 -2
6 7 7 8 5 5 4 5 6 7 8 5 5 6 5 6 5 6 7 7 6 6 7 7 8 8 7 8 8 7 7 7 5 5 4 4 3 2 1 0 -0 -1 -2 -3
7 8 3 2 2 3 4 5 6 4 5 7 6 7 5 7 5 5 6 7 6 6 7 7 7 8 6 6 7 7 6 5 5 4 3 2 2 1 -0 -1 -2 -3 -3 -4
5 2 3 3 3 5 5 4 5 5 5 7 6 7 6 6 6 5 6 5 6 6 6 6 7 7 5 5 4 4 3 3 3 3 2 2 2 1 -1 -2 -3 -4 -5 -6
3 5 2 3 5 4 5 2 4 7 6 6 6 7 7 5 7 6 5 5 5 6 6 6 7 6 4 3 2 2 1 0 0 0 -0 -1 -1 -2 -2 -3 -4 -6 -7 -9
4 5 2 5 3 5 7 4 4 5 5 5 5 5 6 5 6 3 5 5 6 6 6 7 8 5 4 3 1 1 0 -0 -1 -1 -2 -3 -4 -4 -4 -5 -7 -8 -8 -10
3 4 2 4 4 4 5 7 7 4 5 6 7 5 6 5 4 4 5 4 6 5 6 7 7 5 3 2 1 1 0 -2 -2 -2 -3 -4 -5 -7 -9 -9 -10 -9 -9 -11
2 4 2 2 1 2 3 3 4 5 6 7 6 6 7 4 3 5 4 4 6 7 7 7 6 4 3 2 1 1 -1 -4 -5 -5 -6 -7 -8 -8 -9 -10 -10 -10 -11 -11
2 2 3 2 3 2 3 3 3 4 5 6 7 5 5 4 5 5 6 7 7 7 6 5 4 2 2 1 -0 -2 -3 -4 -5 -6 -7 -8 -9 -8 -8 -10 -10 -11 -11 -11
2 2 1 2 2 2 2 3 2 2 5 4 6 5 4 5 5 5 6 6 6 5 3 3 2 1 -0 -1 -2 -4 -5 -5 -6 -7 -7 -7 -9 -9 -8 -8 -9 -10 -11 -11

GFSNW_925_temp_147.txt.gz
Temp
6 6 6 7 7 6 5 5 5 3 5 6 7 10 15 17 17 17 17 18 19 18 20 18 19 19 18 17 17 16 17 17 16 16 17 17 17 16 15 13 14 14 14 15
5 6 6 7 6 5 6 3 2 3 4 7 7 14 15 16 17 17 17 17 18 18 18 17 18 17 16 16 16 16 15 16 15 15 15 15 15 16 15 13 11 12 12 15
6 6 6 7 6 6 6 3 4 3 3 5 7 12 14 14 17 17 17 17 17 16 17 16 17 15 14 15 16 11 15 15 16 16 16 16 14 15 15 15 13 14 15 15
5 5 6 6 5 6 6 5 6 10 7 7 8 11 13 14 13 15 16 15 16 16 15 14 15 13 12 13 11 13 14 13 15 15 15 15 15 15 15 14 14 13 15 15
5 6 6 6 5 5 5 4 7 10 13 11 9 9 11 12 15 13 14 14 14 15 14 14 12 13 12 13 13 13 14 12 12 13 14 15 14 15 15 15 15 15 15 14
5 6 6 7 6 5 4 4 9 11 11 11 9 10 13 14 15 13 14 13 12 11 12 14 15 15 15 14 13 12 12 13 12 13 14 14 13 14 15 14 13 11 11 13
4 5 5 7 5 5 5 4 9 9 9 10 11 12 13 13 14 13 14 14 13 14 15 15 14 14 14 14 14 13 12 12 13 13 13 11 14 15 15 12 12 13 12 11
4 5 5 6 6 5 6 6 7 9 10 10 11 13 13 14 14 13 13 15 14 13 14 12 11 11 11 11 12 12 13 13 12 11 13 13 12 12 12 12 12 12 10 10
5 5 6 5 5 5 6 6 7 10 10 11 12 12 13 13 12 13 11 13 12 13 13 13 11 10 12 11 11 12 12 12 11 12 12 12 13 12 12 12 10 10 10 9
4 4 5 5 5 5 5 6 7 10 9 11 11 11 13 14 14 12 11 11 11 13 12 11 12 12 13 11 10 9 10 10 10 11 11 12 13 12 12 9 9 9 8 8
4 4 5 5 5 5 5 5 6 7 9 12 12 14 14 14 13 11 11 11 11 11 11 11 12 13 13 13 12 9 9 9 10 11 10 10 13 11 10 9 8 7 7 6
4 5 5 5 5 4 5 4 6 7 9 10 9 10 10 14 14 14 12 13 12 11 11 12 13 11 12 13 11 11 9 9 11 12 11 11 12 10 8 8 8 6 6 6
4 4 5 5 4 5 6 4 7 8 9 9 11 10 9 11 13 13 13 13 12 12 14 12 12 12 12 12 13 11 11 11 9 9 9 11 9 9 8 7 6 6 7 7
5 4 4 4 5 5 6 6 9 10 11 8 8 8 8 8 10 12 12 12 11 12 13 12 11 12 12 14 14 13 11 11 10 8 9 9 9 8 7 6 6 6 6 6
4 4 4 4 5 7 8 8 9 11 11 8 8 9 9 10 10 10 10 10 11 12 11 10 11 13 12 12 13 12 12 11 9 10 8 8 9 6 6 5 5 6 5 5
4 4 5 6 7 8 10 9 9 10 10 9 7 8 9 10 10 11 11 12 13 13 12 12 12 11 12 11 12 13 13 12 11 11 10 9 7 7 7 7 6 4 4 3
4 5 6 7 8 8 8 9 9 9 10 8 8 8 8 9 10 11 11 11 11 12 11 11 12 11 11 10 11 12 11 11 11 10 9 8 8 7 6 5 4 2 3 2
5 6 7 8 8 7 7 6 8 9 10 10 6 7 8 9 10 9 10 10 11 10 11 11 11 10 10 9 11 11 11 10 9 9 9 9 7 6 5 4 4 3 3 1
6 8 8 7 7 7 6 6 7 8 10 7 7 7 7 9 8 9 9 10 8 10 9 11 11 10 9 10 10 10 10 9 8 8 7 7 6 5 4 4 3 2 2 1
7 7 4 4 4 5 6 8 7 6 8 9 9 10 7 9 8 8 8 9 9 7 10 10 9 10 9 9 10 10 9 9 8 6 5 5 4 4 3 3 1 0 -0 -1
7 4 6 5 5 8 9 5 7 7 7 10 10 9 8 9 8 6 9 7 8 8 9 8 9 9 7 8 8 8 7 6 6 6 5 5 5 3 2 1 -1 -2 -2 -4
6 7 5 6 8 7 6 5 7 10 8 9 9 9 9 9 10 8 7 7 7 8 9 7 8 7 7 6 5 5 5 4 3 2 1 1 1 1 0 -0 -1 -3 -5 -8
8 8 4 7 5 6 8 6 7 7 8 9 9 8 8 8 9 5 6 6 8 9 7 9 10 8 7 6 5 4 3 3 2 2 0 -1 -2 -2 -2 -3 -5 -6 -7 -8
6 5 4 5 6 7 8 10 9 8 9 9 10 9 8 8 6 7 6 7 8 7 8 9 9 8 7 5 5 4 3 1 1 0 -1 -3 -4 -6 -8 -8 -8 -8 -7 -9
4 5 4 3 3 3 3 6 8 9 10 10 9 9 8 7 4 7 6 5 7 9 9 8 8 7 6 4 4 4 1 -2 -2 -3 -4 -6 -7 -7 -8 -8 -8 -9 -9 -9
4 4 4 4 4 3 4 4 5 9 9 10 10 7 6 6 7 6 7 8 9 8 8 8 7 5 5 3 3 0 -2 -2 -3 -5 -6 -6 -7 -6 -7 -8 -9 -10 -9 -9
4 3 2 4 3 3 3 4 3 5 8 6 8 7 6 8 8 7 9 8 8 7 6 6 5 4 2 0 -1 -2 -3 -3 -4 -5 -5 -6 -7 -8 -7 -6 -8 -8 -9 -10

GFSNW_925_temp_153.txt.gz
Temp
5 6 6 6 6 7 6 6 7 4 5 5 5 8 12 14 16 17 16 17 19 18 18 18 18 17 18 18 16 15 17 15 14 15 17 17 15 15 13 8 11 8 8 10
5 5 6 6 6 6 6 5 3 3 4 7 7 8 12 14 16 16 17 17 19 19 18 18 18 17 16 16 16 15 15 13 12 15 14 16 15 15 15 11 8 10 7 10
4 5 6 6 6 6 5 3 4 2 2 3 7 9 11 13 15 16 18 17 18 17 17 18 17 14 16 15 13 14 15 14 13 12 14 14 13 14 15 12 8 10 10 12
4 4 5 7 5 5 5 4 5 4 4 5 6 8 9 12 13 15 16 16 16 16 15 16 15 14 13 13 13 14 12 11 13 13 15 16 15 15 14 14 12 10 12 13
4 4 4 5 4 5 5 3 5 5 6 7 6 8 8 10 13 14 14 15 15 15 14 13 13 12 11 11 12 12 12 8 12 11 13 15 14 15 15 15 15 14 14 13
3 4 4 4 4 5 4 3 5 7 7 7 7 8 9 10 12 13 14 14 13 14 14 13 13 12 11 12 10 9 10 10 11 10 13 13 11 13 14 14 14 13 11 12
3 3 3 3 4 5 5 4 6 6 7 7 8 10 10 11 11 9 12 11 12 13 12 13 12 12 13 12 10 10 10 10 9 9 11 10 12 15 15 14 14 13 13 11
3 3 3 3 5 5 5 6 6 5 7 8 9 11 10 11 11 11 11 12 12 11 12 9 10 10 11 11 11 10 11 9 8 7 9 11 13 14 13 13 12 12 12 10
3 3 4 4 5 5 5 6 6 6 6 7 12 10 11 10 9 8 9 11 12 11 9 8 9 8 9 9 11 12 12 10 7 8 8 7 10 12 13 12 7 9 9 8
3 3 3 4 5 5 5 5 6 6 6 8 10 10 10 9 8 7 9 10 10 12 7 8 8 9 10 8 7 6 7 6 6 7 6 8 11 12 13 9 6 7 7 5
3 3 3 4 4 5 5 5 6 5 6 7 9 11 9 10 10 8 9 9 9 9 8 8 8 7 8 8 9 6 5 5 5 6 4 6 12 11 9 6 7 6 5 5
2 3 3 4 4 5 5 5 5 6 4 5 6 9 11 11 12 9 9 9 9 7 6 5 6 8 7 8 7 10 6 5 5 6 6 8 8 7 7 7 5 5 5 6
3 3 4 4 4 5 5 5 5 5 4 3 6 7 10 11 11 13 9 9 11 10 9 8 8 10 8 5 6 8 10 8 4 7 9 8 7 7 7 6 5 6 6 7
3 3 3 4 4 5 5 5 6 5 5 5 5 8 10 12 13 13 13 12 12 10 8 7 6 6 9 8 8 7 6 8 6 7 9 8 8 6 5 5 5 7 6 5
3 3 4 4 4 5 5 6 6 7 5 5 5 7 9 11 12 12 13 11 9 7 6 4 5 7 7 8 8 5 9 8 6 5 6 6 5 4 5 4 6 7 6 5
3 4 4 4 4 4 5 4 5 6 7 4 5 5 9 11 11 10 9 9 8 7 6 6 7 9 7 5 7 10 10 10 9 7 7 6 6 6 6 6 5 5 3 2
4 4 4 4 4 5 4 4 5 6 6 4 4 5 8 10 10 8 8 9 7 7 7 6 6 7 7 5 8 10 10 9 8 8 7 6 7 5 7 4 4 4 3 1
4 4 4 5 5 5 6 6 7 7 9 6 5 5 6 10 7 7 7 6 6 6 6 6 6 6 6 6 10 10 9 9 7 7 7 6 6 5 5 4 4 3 1 -0
4 5 5 5 5 4 5 6 7 9 7 4 3 4 6 8 8 6 6 6 4 6 4 7 6 7 6 9 9 9 8 7 7 7 6 6 5 4 4 3 3 1 0 -2
4 4 2 2 3 5 6 7 4 3 5 6 5 6 5 7 6 5 4 2 3 3 6 7 5 6 8 9 9 8 7 7 7 5 5 4 3 2 1 1 -0 -1 -2 -4
5 3 3 3 6 6 4 4 4 4 5 6 6 8 6 7 4 3 5 3 4 5 6 5 5 4 7 7 6 6 5 5 4 4 4 4 2 0 -1 -1 -2 -4 -5 -6
7 5 5 6 6 4 4 3 4 7 6 6 6 6 5 5 5 3 3 4 3 7 6 3 5 4 6 5 4 4 3 2 1 1 -0 -0 -1 -1 -2 -3 -5 -6 -7 -8
8 5 3 4 3 3 3 2 4 4 5 6 6 5 4 5 4 2 3 3 4 5 2 5 5 6 5 4 4 2 2 1 1 -0 -2 -4 -4 -3 -4 -5 -6 -7 -8 -8
3 4 2 3 2 5 5 6 6 5 6 6 6 3 4 3 3 2 2 4 4 3 2 6 4 5 4 3 3 2 1 -1 -2 -3 -4 -5 -6 -7 -6 -7 -7 -8 -9 -9
3 3 2 1 2 3 2 3 6 7 7 6 4 4 3 2 2 3 3 4 3 4 4 2 3 3 3 2 1 -1 -2 -4 -5 -5 -7 -7 -7 -8 -8 -8 -8 -8 -9 -9
3 3 2 3 4 5 5 6 6 6 3 5 4 3 2 2 3 3 3 5 4 3 1 3 3 2 1 0 -1 -3 -4 -5 -6 -6 -7 -7 -8 -8 -8 -8 -9 -9 -9 -9
3 2 2 3 3 3 3 3 3 3 3 2 3 2 5 3 3 5 3 4 5 4 2 1 2 1 -2 -3 -3 -4 -4 -6 -6 -6 -7 -7 -7 -8 -8 -9 -9 -8 -8 -8

GFSNW_925_temp_159.txt.gz
Temp
5 5 6 6 6 7 7 6 6 5 6 7 5 8 9 10 12 14 14 14 16 15 15 15 15 15 16 16 15 16 15 13 12 14 15 14 13 12 11 8 11 7 8 12
4 5 5 6 6 5 6 4 3 5 5 7 6 9 9 11 12 13 13 14 15 15 14 14 15 15 15 14 15 14 14 12 11 13 12 14 13 12 11 8 8 9 8 11
4 4 5 5 5 5 5 2 5 3 3 5 7 8 8 9 11 11 13 11 14 12 13 14 13 14 13 13 14 13 15 12 14 14 14 11 12 12 11 11 8 12 10 10
3 4 4 4 4 5 5 4 4 4 5 5 6 8 9 9 9 12 12 12 11 11 10 12 11 12 12 13 12 12 13 13 13 13 13 13 13 12 11 11 12 11 13 11
3 3 4 4 5 5 4 3 4 4 3 6 6 7 8 9 10 11 11 11 12 10 9 9 9 11 11 13 12 12 10 9 12 12 12 13 12 12 11 11 12 10 11 10
3 3 3 4 5 4 2 3 3 4 5 5 6 8 8 9 9 10 11 11 9 10 11 11 11 10 11 10 11 9 10 9 10 12 12 12 12 10 11 12 11 11 10 10
3 3 3 4 4 4 3 2 4 4 5 5 7 7 8 8 9 9 11 11 10 11 10 12 11 10 11 11 9 9 9 10 9 10 11 11 13 12 13 11 10 11 10 8
3 3 3 3 4 4 3 3 4 4 4 6 6 6 7 7 8 9 10 9 9 9 8 6 8 7 8 10 10 10 10 8 8 9 9 10 12 12 11 11 10 8 7 5
2 2 3 3 4 4 3 4 4 4 5 5 5 6 7 7 8 8 9 8 8 7 6 7 9 8 9 9 10 9 8 8 9 7 8 8 9 10 11 11 7 8 7 5
2 2 3 3 3 3 3 3 4 4 4 4 5 6 6 7 7 7 8 8 7 7 6 8 8 8 10 9 8 6 7 7 6 6 6 7 9 11 12 10 7 6 5 5
2 2 3 3 3 3 3 3 3 4 4 5 6 6 6 6 8 8 8 7 7 6 7 7 6 7 8 7 8 6 5 6 4 4 3 6 9 11 10 6 4 4 4 4
2 2 2 2 3 3 2 2 3 3 4 4 4 5 4 4 5 6 8 8 6 5 5 5 6 7 5 6 7 7 6 4 5 6 6 6 7 8 5 5 4 3 3 3
2 2 2 2 2 2 1 1 3 4 4 4 3 5 6 5 5 5 6 7 8 7 7 6 7 9 5 5 5 6 7 6 4 6 6 5 5 5 4 5 4 3 3 3
2 2 2 2 2 3 2 1 3 5 4 4 4 4 4 5 5 6 6 8 8 7 7 6 7 7 6 5 6 6 5 6 5 4 5 5 5 4 4 3 3 3 3 2
1 2 2 2 2 3 2 2 4 5 4 4 4 4 4 5 6 7 8 8 7 6 7 5 7 5 5 5 6 4 5 6 4 4 5 4 4 3 4 3 2 2 1 -1
2 1 2 2 2 3 2 3 3 4 5 3 5 3 3 5 5 6 8 8 5 5 5 5 4 5 5 4 6 8 7 7 7 6 6 5 4 4 3 2 1 1 -0 -1
2 2 2 2 3 3 3 4 5 5 5 3 4 4 3 5 6 5 5 5 5 6 4 4 5 5 4 3 6 7 7 5 5 5 5 4 4 3 2 1 0 -1 -3 -3
2 2 2 3 3 3 3 4 4 4 4 4 4 4 4 5 6 6 4 5 5 4 4 4 5 4 4 5 6 6 5 5 5 5 4 4 3 2 1 -1 -2 -3 -3 -4
2 3 3 3 3 3 4 4 4 5 4 3 3 4 5 6 5 5 5 4 4 3 3 5 4 4 5 6 6 5 5 5 4 3 3 3 2 1 -0 -1 -2 -3 -4 -5
3 3 2 2 4 4 5 4 3 3 3 3 4 3 4 5 3 3 3 1 2 3 4 3 3 3 5 7 7 6 4 4 3 2 2 1 1 0 -1 -1 -2 -3 -4 -5
3 1 2 3 4 3 1 3 3 3 3 3 4 5 5 4 5 4 3 1 2 3 5 4 4 3 5 5 4 3 4 4 4 4 3 3 1 -1 -2 -3 -4 -5 -5 -6
3 3 4 4 3 3 3 1 1 4 5 4 5 5 4 4 4 4 3 3 0 5 3 2 4 3 3 2 1 1 1 1 1 2 -0 -0 -1 -2 -3 -4 -5 -5 -7 -7
6 4 2 3 2 0 1 1 2 2 3 3 4 5 4 4 2 1 1 2 2 4 1 5 4 2 2 1 -0 -1 -1 -1 -1 -2 -2 -3 -4 -4 -4 -5 -6 -7 -8 -8
1 -1 -1 -0 0 1 3 4 4 3 4 6 6 2 4 1 3 0 1 2 3 1 2 4 1 2 1 0 -0 -1 -2 -2 -3 -3 -3 -3 -4 -6 -6 -6 -7 -8 -9 -9
-0 1 -0 -1 0 0 1 1 2 4 6 5 4 3 3 2 1 2 2 3 2 3 2 1 1 1 0 -1 -1 -2 -3 -5 -5 -5 -7 -8 -7 -8 -9 -8 -7 -8 -9 -9
1 1 3 3 3 3 1 3 4 4 3 3 3 2 2 0 1 2 2 3 2 1 -1 -2 1 0 -0 -1 -1 -3 -5 -6 -8 -7 -8 -8 -8 -9 -9 -9 -8 -9 -9 -9
1 2 1 2 3 3 3 4 2 0 3 2 1 1 3 2 1 2 1 -0 -1 -0 -3 -0 1 0 -1 -3 -5 -7 -7 -8 -9 -9 -8 -8 -8 -8 -10 -11 -9 -9 -9 -9